0 HST 1 20580U 90037B 26195.45743294 .00003622 00000-0 10984-3 0 9993 2 20580 28.4724 254.1506 0002218 96.5348 263.5501 15.31056727792754 0 ISS (ZARYA) 1 25544U 98067A 26195.41159911 .00003993 00000-0 80585-4 0 9998 2 25544 51.6306 165.3606 0006703 294.7447 65.2843 15.49007257575974 0 CXO 1 25867U 99040B 26198.46886809 .00000598 00000-0 00000-0 0 9997 2 25867 56.6226 115.7943 7787022 310.0504 0.5333 0.37805709 17431